Погода в Вендичанах

Украина / Винницкая область     48°36′54″N   27°47′40″E
темп.,
°C
ветер,
м/с
пор.,
м/с
влажн.,
%
обл.,
%
осадки,
мм/ч
давл.,
гПа
погр.,
м
13 мая, чт
чт1300:00+7вюв35823 0.0 101279
03:00+6юв33814 0.0 101049
06:00+8юв4979100 0.0 1009319
09:00+10юв6128399 0.0 1008664
12:00+14ююв71268100 0.0 10071197
15:00+15ююв71170100 0.0 10061257
18:00+12ююв81182100 0.1 1006705
21:00+11юв5118575 0.1 1007459
14 мая, пт
пт1400:00+9вюв39945 0.0 1006205
03:00+8юв399642 0.1 1006213
06:00+8вюв2396100 0.0 100663
09:00+12ююв4585100 0.1 1006377
12:00+13ю4485100 0.5 1007588
15:00+14ююз3381100 0.7 1007405
18:00+15ююз247762 0.2 1007377
21:00+12ююз34895 0.5 100752
15 мая, сб
сб1500:00+10зсз2285100 0.0 100923
03:00+10ююз338579 0.0 100953
06:00+10з41292100 0.2 1010462
09:00+14з587749 0.2 1011740
12:00+17з456174 0.1 10121339
15:00+17зсз335988 0.4 10121108
18:00+18юв115691 0.0 10121101
21:00+13всв33734 0.0 101123
16 мая, вс
вс1600:00+11всв33805 0.0 101139
03:00+10в359068 0.1 101288
06:00+10вюв3693100 0.0 1011101
09:00+16юв4773100 0.0 1011379
12:00+21юв575696 0.0 10101167
15:00+22юв674987 0.0 10091733
18:00+22ююв4657100 0.0 10071719
21:00+16вюв3373100 0.0 100720
17 мая, пн
пн1700:00+15вюв2376100 0.0 100639
03:00+14ссв1183100 0.1 100511
06:00+13сз2290100 0.2 100537
09:00+16ссз347999 0.2 1005455
12:00+15зсз678776 0.4 1005437
15:00+18сз567062 0.5 1005849
18:00+18ссз357093 0.4 1005633
21:00+14с22850 0.4 100613